This is the latest recevied weather packets stored in our database for station/object WX1NWA. If no packets are shown the sender has not sent any weather packets the latest 10 day(s).
| Time | Temp. | Humidity | Pressure | Rain* | Wind** | Luminosity | Snow |
|---|---|---|---|---|---|---|---|
| 1777054419 | 15.56° C | 98% | 1012.3 hPa | 0 mm | - | 83 W/m² | - |
| 1777054118 | 15.56° C | 98% | 1012.4 hPa | 0 mm | - | 126 W/m² | - |
| 1777053813 | 15.56° C | 98% | 1012.4 hPa | 0 mm | - | 142 W/m² | - |
| 1777053512 | 15.56° C | 99% | 1012.3 hPa | 0 mm | - | 92 W/m² | - |
| 1777053209 | 15.56° C | 99% | 1012.3 hPa | 0 mm | - | 121 W/m² | - |
| 1777052905 | 15.56° C | 99% | 1012.3 hPa | 0 mm | - | 86 W/m² | - |
| 1777052601 | 15.56° C | 99% | 1012.5 hPa | 0 mm | - | 131 W/m² | - |
| 1777052296 | 15.56° C | 99% | 1012.4 hPa | 0 mm | - | 65 W/m² | - |
| 1777051992 | 16.11° C | 99% | 1012.4 hPa | 0 mm | - | 60 W/m² | - |
| 1777051690 | 16.11° C | 99% | 1012.3 hPa | 0 mm | - | 84 W/m² | - |
| 1777051386 | 15.56° C | 99% | 1012.3 hPa | 0 mm | - | 116 W/m² | - |
| 1777051082 | 15.56° C | 99% | 1012.2 hPa | 0 mm | - | 154 W/m² | - |
| 1777050777 | 16.11° C | 99% | 1012.4 hPa | 0 mm | - | 232 W/m² | - |
| 1777050473 | 16.11° C | 99% | 1012.3 hPa | 0 mm | - | 221 W/m² | - |
| 1777050168 | 15.56° C | 99% | 1012.4 hPa | 0 mm | - | 157 W/m² | - |
| 1777049868 | 15.56° C | 99% | 1012.3 hPa | 0 mm | - | 173 W/m² | - |
| 1777049563 | 15.56° C | 99% | 1012.4 hPa | 0 mm | - | 190 W/m² | - |
| 1777049262 | 15.56° C | 99% | 1012.2 hPa | 0 mm | - | 228 W/m² | - |
| 1777048958 | 15.56° C | 99% | 1012.2 hPa | 0 mm | - | 308 W/m² | - |
| 1777048658 | 15.56° C | 99% | 1012.2 hPa | 0 mm | - | 288 W/m² | - |
| 1777048353 | 15.56° C | 99% | 1012.1 hPa | 0 mm | - | 194 W/m² | - |
| 1777048053 | 15° C | 99% | 1012.3 hPa | 0 mm | - | 191 W/m² | - |
| 1777047749 | 15.56° C | 99% | 1012.3 hPa | 0 mm | - | 180 W/m² | - |
| 1777047446 | 15.56° C | 99% | 1011.8 hPa | 0 mm | - | 274 W/m² | - |
| 1777047140 | 15.56° C | 99% | 1012.2 hPa | 0 mm | - | 269 W/m² | - |
* Rain latest hour (hover to see other rain measurements)
** Current wind speed in m/s (hover to see current wind gust speed)